• En España
  • Lista de países
  • Para 7 días
  • Temperatura del agua
  • Mapa Satelital
  • El tiempo en el mapa
  • Informadores
  • user-avatar
    Iniciar sesión

    Tiempo cada hora Igls

    Hoy, 21 Agosto, Martes

    Tiempo Temperatura Precipitaciones Viento Presión Humedad
    00:00 +18°C° 0,1 mm 1 mps 688 mmHg 95%
    01:00 +18°C° 0 mm 1 mps 688 mmHg 95%
    02:00 +16°C° 0 mm 1 mps 688 mmHg 95%
    03:00 +16°C° 0 mm 1 mps 688 mmHg 95%
    04:00 +16°C° 0 mm 1 mps 688 mmHg 95%
    05:00 +16°C° 0 mm 1 mps 688 mmHg 93%
    06:00 +18°C° 0 mm 1 mps 688 mmHg 91%
    07:00 +20°C° 0 mm 1 mps 689 mmHg 87%
    08:00 +22°C° 0 mm 1 mps 689 mmHg 78%
    09:00 +24°C° 0 mm 1 mps 689 mmHg 68%
    10:00 +26°C° 0 mm 1 mps 689 mmHg 58%
    11:00 +27°C° 0,3 mm 1 mps 689 mmHg 56%
    12:00 +27°C° 0,3 mm 1 mps 689 mmHg 54%
    13:00 +28°C° 0,3 mm 2 mps 689 mmHg 51%
    14:00 +27°C° 0,9 mm 2 mps 689 mmHg 57%
    15:00 +26°C° 0,9 mm 2 mps 688 mmHg 62%
    16:00 +26°C° 0,9 mm 1 mps 688 mmHg 67%
    17:00 +24°C° 0,8 mm 1 mps 688 mmHg 75%
    18:00 +23°C° 0,8 mm 1 mps 688 mmHg 82%
    19:00 +21°C° 0,8 mm 1 mps 687 mmHg 89%
    20:00 +20°C° 0,4 mm 1 mps 688 mmHg 90%
    21:00 +20°C° 0,4 mm 1 mps 688 mmHg 91%
    22:00 +19°C° 0,4 mm 1 mps 688 mmHg 92%
    23:00 +19°C° 0,1 mm 1 mps 688 mmHg 92%

    Mañana, 22 Agosto, Miércoles

    Tiempo Temperatura Precipitaciones Viento Presión Humedad
    00:00 +18°C° 0,1 mm 1 mps 688 mmHg 92%
    01:00 +18°C° 0,1 mm 1 mps 688 mmHg 92%
    02:00 +18°C° 0,1 mm 1 mps 688 mmHg 92%
    03:00 +16°C° 0,1 mm 1 mps 687 mmHg 92%
    04:00 +16°C° 0,1 mm 1 mps 687 mmHg 92%
    05:00 +18°C° 0 mm 1 mps 687 mmHg 90%
    06:00 +19°C° 0 mm 1 mps 688 mmHg 88%
    07:00 +20°C° 0 mm 1 mps 688 mmHg 86%
    08:00 +22°C° 0 mm 1 mps 688 mmHg 76%
    09:00 +24°C° 0 mm 1 mps 688 mmHg 66%
    10:00 +27°C° 0 mm 1 mps 689 mmHg 56%
    11:00 +27°C° 0,8 mm 1 mps 688 mmHg 58%
    12:00 +27°C° 0,8 mm 1 mps 688 mmHg 59%
    13:00 +27°C° 0,8 mm 2 mps 688 mmHg 60%
    14:00 +27°C° 2 mm 1 mps 688 mmHg 64%
    15:00 +26°C° 2 mm 1 mps 688 mmHg 67%
    16:00 +26°C° 2 mm 1 mps 687 mmHg 71%
    17:00 +24°C° 1,4 mm 1 mps 687 mmHg 77%
    18:00 +22°C° 1,4 mm 1 mps 687 mmHg 82%
    19:00 +19°C° 1,4 mm 0 mps 687 mmHg 88%
    20:00 +20°C° 0,4 mm 1 mps 687 mmHg 89%
    21:00 +20°C° 0,4 mm 1 mps 687 mmHg 90%
    22:00 +19°C° 0,4 mm 1 mps 687 mmHg 91%
    23:00 +19°C° 0,1 mm 1 mps 687 mmHg 91%

    Pasado mañana, 23 Agosto, Jueves

    Tiempo Temperatura Precipitaciones Viento Presión Humedad
    00:00 +19°C° 0,1 mm 1 mps 687 mmHg 91%
    01:00 +19°C° 0,1 mm 1 mps 687 mmHg 91%
    02:00 +19°C° 0,2 mm 1 mps 687 mmHg 91%
    03:00 +18°C° 0,2 mm 1 mps 687 mmHg 91%
    04:00 +18°C° 0,2 mm 1 mps 686 mmHg 91%
    05:00 +19°C° 0,2 mm 1 mps 686 mmHg 90%
    06:00 +19°C° 0,2 mm 1 mps 686 mmHg 88%
    07:00 +20°C° 0,2 mm 1 mps 686 mmHg 87%
    08:00 +22°C° 0,3 mm 1 mps 686 mmHg 79%
    09:00 +23°C° 0,3 mm 1 mps 687 mmHg 72%
    10:00 +25°C° 0,3 mm 1 mps 687 mmHg 64%
    11:00 +26°C° 0,8 mm 1 mps 687 mmHg 62%
    12:00 +26°C° 0,8 mm 1 mps 686 mmHg 61%
    13:00 +26°C° 0,8 mm 1 mps 686 mmHg 59%
    14:00 +26°C° 1,6 mm 1 mps 686 mmHg 63%
    15:00 +25°C° 1,6 mm 1 mps 686 mmHg 67%
    16:00 +25°C° 1,6 mm 1 mps 685 mmHg 71%
    17:00 +23°C° 1 mm 1 mps 685 mmHg 77%
    18:00 +22°C° 1 mm 1 mps 685 mmHg 82%
    19:00 +20°C° 1 mm 1 mps 684 mmHg 88%
    20:00 +20°C° 0,5 mm 1 mps 685 mmHg 88%
    21:00 +19°C° 0,5 mm 1 mps 685 mmHg 89%
    22:00 +19°C° 0,5 mm 1 mps 685 mmHg 90%
    23:00 +18°C° 0,2 mm 1 mps 684 mmHg 90%

    24 Agosto, Viernes

    Tiempo Temperatura Precipitaciones Viento Presión Humedad
    00:00 +18°C° 0,2 mm 1 mps 684 mmHg 90%
    01:00 +18°C° 0,2 mm 1 mps 684 mmHg 90%
    02:00 +16°C° 0,2 mm 1 mps 684 mmHg 90%
    03:00 +16°C° 0,2 mm 1 mps 683 mmHg 90%
    04:00 +16°C° 0,2 mm 1 mps 683 mmHg 90%
    05:00 +18°C° 0,2 mm 1 mps 683 mmHg 88%
    06:00 +18°C° 0,2 mm 1 mps 683 mmHg 87%
    07:00 +19°C° 0,2 mm 1 mps 684 mmHg 85%
    08:00 +20°C° 0,6 mm 1 mps 684 mmHg 82%
    09:00 +21°C° 0,6 mm 1 mps 684 mmHg 78%
    10:00 +20°C° 0,6 mm 0 mps 684 mmHg 75%
    11:00 +23°C° 0,7 mm 1 mps 684 mmHg 73%
    12:00 +23°C° 0,7 mm 1 mps 683 mmHg 71%
    13:00 +24°C° 0,7 mm 1 mps 683 mmHg 69%
    14:00 +23°C° 1,3 mm 1 mps 683 mmHg 73%
    15:00 +22°C° 1,3 mm 1 mps 683 mmHg 77%
    16:00 +22°C° 1,3 mm 1 mps 682 mmHg 81%
    17:00 +20°C° 2,2 mm 1 mps 682 mmHg 86%
    18:00 +19°C° 2,2 mm 1 mps 682 mmHg 91%
    19:00 +18°C° 2,2 mm 1 mps 682 mmHg 96%
    20:00 +18°C° 2 mm 1 mps 682 mmHg 96%
    21:00 +16°C° 2 mm 1 mps 683 mmHg 96%
    22:00 +16°C° 2 mm 1 mps 683 mmHg 97%
    23:00 +16°C° 1,4 mm 1 mps 683 mmHg 97%

    25 Agosto, Sábado

    Tiempo Temperatura Precipitaciones Viento Presión Humedad
    00:00 +15°C° 1,4 mm 2 mps 683 mmHg 97%
    01:00 +15°C° 1,4 mm 2 mps 682 mmHg 97%
    02:00 +15°C° 1,2 mm 2 mps 682 mmHg 97%
    03:00 +14°C° 1,2 mm 2 mps 682 mmHg 98%
    04:00 +14°C° 1,2 mm 2 mps 682 mmHg 98%
    05:00 +14°C° 1 mm 2 mps 682 mmHg 97%
    06:00 +14°C° 1 mm 2 mps 682 mmHg 97%
    07:00 +13°C° 1 mm 2 mps 682 mmHg 97%
    08:00 +14°C° 0,8 mm 2 mps 682 mmHg 96%
    09:00 +14°C° 0,8 mm 1 mps 681 mmHg 95%
    10:00 +14°C° 0,8 mm 1 mps 681 mmHg 95%
    11:00 +14°C° 0,9 mm 1 mps 681 mmHg 94%
    12:00 +14°C° 0,9 mm 2 mps 681 mmHg 94%
    13:00 +14°C° 0,9 mm 2 mps 680 mmHg 93%
    14:00 +13°C° 2 mm 2 mps 680 mmHg 94%
    15:00 +13°C° 2 mm 2 mps 680 mmHg 95%
    16:00 +12°C° 2 mm 2 mps 679 mmHg 97%
    17:00 +12°C° 2,6 mm 2 mps 679 mmHg 97%
    18:00 +10°C° 2,6 mm 2 mps 679 mmHg 97%
    19:00 +10°C° 2,6 mm 2 mps 680 mmHg 97%
    20:00 +9°C° 2,5 mm 2 mps 680 mmHg 98%
    21:00 +9°C° 2,5 mm 2 mps 680 mmHg 98%
    22:00 +9°C° 2,5 mm 2 mps 680 mmHg 98%
    23:00 +9°C° 2,2 mm 2 mps 680 mmHg 98%

    26 Agosto, Domingo

    Tiempo Temperatura Precipitaciones Viento Presión Humedad
    00:00 +8°C° 2,2 mm 3 mps 680 mmHg 98%
    01:00 +8°C° 2,2 mm 3 mps 681 mmHg 98%
    02:00 +8°C° 1,6 mm 3 mps 681 mmHg 98%
    03:00 +7°C° 1,6 mm 3 mps 681 mmHg 97%
    04:00 +7°C° 1,6 mm 3 mps 680 mmHg 97%
    05:00 +7°C° 1,7 mm 3 mps 681 mmHg 97%
    06:00 +7°C° 1,7 mm 3 mps 681 mmHg 97%
    07:00 +6°C° 1,7 mm 2 mps 682 mmHg 97%
    08:00 +7°C° 0,9 mm 2 mps 682 mmHg 96%
    09:00 +7°C° 0,9 mm 2 mps 683 mmHg 95%
    10:00 +8°C° 0,9 mm 2 mps 683 mmHg 95%
    11:00 +9°C° 0,2 mm 2 mps 683 mmHg 91%
    12:00 +10°C° 0,2 mm 2 mps 683 mmHg 87%
    13:00 +12°C° 0,2 mm 2 mps 683 mmHg 84%
    14:00 +12°C° 0,1 mm 2 mps 683 mmHg 83%
    15:00 +12°C° 0,1 mm 2 mps 683 mmHg 82%
    16:00 +12°C° 0,1 mm 2 mps 683 mmHg 81%
    17:00 +10°C° 0 mm 2 mps 683 mmHg 84%
    18:00 +9°C° 0 mm 2 mps 683 mmHg 88%
    19:00 +8°C° 0 mm 2 mps 683 mmHg 91%
    20:00 +8°C° 0 mm 1 mps 684 mmHg 92%
    21:00 +7°C° 0 mm 1 mps 684 mmHg 92%
    22:00 +7°C° 0 mm 1 mps 684 mmHg 93%
    23:00 +6°C° 0 mm 1 mps 684 mmHg 92%
    Mostrar más